INTELSAT 32E (IS-32E) (41945 NORAD) Tracking and Keplerian Element Data

This shows tracking and keplerian element data for the satellite.

Feedback or suggestion? Click here.




ElementValue
Catalog41945
NameINTELSAT 32E (IS-32E)
Epoch Orbit887
Epoch Day194.42880008
Epoch Year2019
RAAN49.2002
Inclination0.0272
Eccentricity6.19E-05
Argument of Perigee357.2547
Mean Anonmoly355.7509
Mean Motion1.00269959
Decay Rate-2.81E-06
L11 41945U 17007B 19194.42880008 -.00000281 00000-0 00000+0 0 9993
L22 41945 0.0272 49.2002 0000619 357.2547 355.7509 1.00269959 8870

Live tracking and technical data element details for INTELSAT 32E (IS-32E) (NORAD 41945). INTELSAT 32E (IS-32E) can be tracked NOW for your location showing map with azimuth and elevation plus other details from your city location.

Track the satellite on the map from your city or location and see movement details for azimuth, elevation, latitude, longitude, range, height, and movement on the map or in text.







IsCatalogInMostPopularTable: catalog: 41945, numindb: 297
Update: records affected: 1



GetName: 41945 INTELSAT 32E (IS-32E)

Hit Count: updated at: Wed, 17 Jul 2019 20:42:25 GMT